Presure
180 166 152 202 173 163 170 127 166 170 174 144 167 175 176 169 161 156 123 105 115 183 179 177 168 160 217 154 161 167 142 156 170 178 177 166 159 181 176 200 153 151 167
179 168 176 152 199 160 159 155 180 163 128 150 168 161 179 171 168 153 181 191 160 146 152 153 175 157 167 195 179 179 177 182 183 161 149 184 181 159 189 177 157 167 186
156 175 178 161 169 199 165 186 184 170 171 169 163 167 152 171 168 188 146 177 177 169 178 172 165 191 181 174 192 180 193 176 196 167 178 168 166 192 157 142 175 163 161
220 203 198 166 191 171 169 173 165 180 174 146 171 158 165 149 145 179 173 193 173 166 190 175 190 168 166 171 176 188 157 161 178 180 171 206 202 144 186 176 161 178 192
199 187 168 212 173 171 151 176 162 186 221 131 162 178 169 170 150 176 166 166 190 174 176 162 193 192 180 189 177 126 172 135 201 219 168 178 185 175 185 155 175 174 132
197 185 193 179 178 193 174 184 175 173 146 144 144 159 176 164 156 183 178 167 177 181 179 179 181 168 202 178 138 178 128 144 134 136 198 198 189 198 184 153 183 188 187
210 192 207 193 197 175 182 186 176 169 162 155 168 178 160 188 186 171 159 155 171 187 186 175 174 178 174 180 176 156 138 164 136 171 143 151 153 152 169 183 182 192 186
224 177 210 189 203 189 179 165 167 165 169 178 148 168 174 166 180 160 165 176 173 194 175 176 164 181 190 183 187 127 198 200 152 160 175 154 192 185 192 180 169 171 197
213 224 223 202 194 200 155 153 168 171 184 152 177 173 162 174 155 158 163 165 197 176 172 176 155 169 180 184 200 201 211 212 196 187 185 160 162 170 175 208 188 175 180
270 225 214 192 193 191 189 185 192 199 179 179 186 167 167 169 166 163 164 158 158 167 168 180 156 162 152 177 185 182 156 177 175 163 181 159 210 194 192 165 170 167 180
295 281 218 209 205 229 213 196 195 193 198 195 189 183 181 186 207 187 182 166 183 158 182 175 175 172 187 188 186 176 184 173 207 201 204 196 175 176 160 180 198 199 171
271 275 297 228 214 214 172 217 209 204 198 182 181 176 174 195 189 190 190 190 190 164 190 188 185 180 174 172 192 200 171 181 166 171 168 205 208 205 205 203 191 190 196
284 279 274 280 286 270 241 212 231 216 209 206 209 195 189 211 150 157 168 168 151 215 176 183 214 175 166 197 194 181 171 204 190 191 193 158 207 180 170 172 189 174 169
272 269 277 278 278 277 283 270 241 222 198 206 211 190 171 180 194 210 186 197 183 192 201 196 191 203 216 203 212 206 206 181 198 197 200 198 200 208 160 183 193 211 190
276 276 271 272 272 268 267 271 269 268 260 246 245 252 208 146 197 154 170 214 218 210 186 206 221 180 192 197 192 181 216 213 211 186 232 211 192 213 219 216 199 190 217
263 258 262 266 265 259 264 262 260 262 275 266 282 273 267 264 266 306 312 248 154 163 249 225 235 234 215 193 223 237 190 204 226 223 228 195 151 201 199 201 216 234 212
294 272 272 268 266 269 281 268 289 290 295 310 292 283 295 273 293 287 273 271 290 318 295 271 229 265 231 226 250 220 220 217 214 231 206 233 222 216 219 221 221 222 230
312 287 288 283 283 285 284 276 275 274 274 270 274 289 292 278 290 296 300 280 289 230 284 298 282 292 275 275 267 263 255 244 242 228 238 236 237 234 239 236 240 250 297
287 296 304 310 314 316 310 285 281 275 276 274 272 266 274 282 273 274 267 263 263 290 253 249 249 265 307 304 300 291 268 252 252 247 251 251 254 255 284 286 305 244 284
314 277 285 279 285 288 290 292 296 298 295 289 283 278 276 285 281 282 265 267 273 273 242 241 295 241 240 287 295 306 304 310 302 304 295 294 292 293 291 250 266 260 266
387 397 312 278 277 271 275 275 272 272 278 280 281 275 279 269 275 279 300 279 290 290 290 297 300 270 277 297 295 272 267 266 269 248 253 265 265 288 264 264 258 298 284
365 367 372 329 291 284 272 264 265 263 267 268 266 266 278 289 286 280 279 286 289 283 289 285 284 292 261 292 287 285 287 289 314 266 266 286 285 279 261 275 277 273 275
384 361 351 353 324 308 287 284 277 265 266 264 278 278 281 282 283 280 281 276 276 275 275 283 284 285 280 290 290 274 270 281 278 280 277 280 276 277 275 268 269 275 264
388 374 354 336 341 327 304 294 279 282 275 273 274 270 259 263 264 267 265 283 283 289 296 328 325 320 318 302 315 325 322 291 290 286 266 280 278 273 268 266 264 262 258
457 430 373 344 330 340 321 299 290 289 290 284 279 276 275 277 281 298 309 309 305 304 304 298 291 289 291 313 316 306 284 294 278 278 280 274 268 268 265 264 264 260 256
404 409 436 366 335 322 342 310 290 281 278 278 286 295 295 289 287 287 281 281 291 296 281 280 276 285 290 289 294 297 292 277 271 272 264 270 269 265 260 260 256 260 253
Wind_Speed
100 84 79 90 94 89 95 63 91 96 101 59 92 98 98 85 69 62 53 69 65 84 87 90 82 70 65 67 68 72 55 55 71 81 85 58 56 81 68 85 59 61 68
101 91 97 75 89 78 88 84 96 94 57 66 93 86 104 95 88 81 92 79 72 60 62 66 82 66 81 83 88 92 77 67 78 64 61 88 82 56 89 74 61 67 74
77 98 102 81 87 93 92 90 93 97 99 100 91 99 71 93 91 105 57 93 92 76 91 86 85 87 79 90 89 88 83 81 91 67 81 71 67 78 59 58 79 69 67
113 108 110 89 101 94 92 95 92 96 96 72 105 82 90 65 63 101 92 90 91 85 92 81 88 90 84 91 78 95 64 70 85 86 71 94 86 59 89 78 70 83 89
112 106 87 113 94 92 78 98 87 102 98 68 87 104 94 100 73 103 91 89 98 97 102 85 94 101 99 96 92 47 81 51 104 93 66 86 92 85 89 77 85 82 66
113 104 110 100 101 106 96 102 96 90 71 70 71 86 103 92 82 106 104 96 109 108 105 103 105 82 96 97 61 99 54 64 52 53 101 97 93 94 91 76 90 92 91
114 108 114 109 109 99 107 103 98 91 85 84 92 100 88 110 100 102 88 88 103 107 103 107 98 102 98 99 87 82 63 84 56 84 63 70 72 74 80 88 89 95 92
112 89 114 106 112 105 104 86 87 88 91 99 80 97 103 96 106 89 95 108 106 109 108 109 94 106 113 104 102 65 114 112 77 79 84 75 95 88 99 84 83 82 99
107 112 113 114 109 110 78 81 97 99 107 78 102 99 93 103 83 90 97 102 109 110 108 111 90 100 101 100 117 115 118 114 100 96 92 76 77 82 89 107 92 84 91
103 108 109 92 102 105 107 106 104 112 107 107 106 95 91 98 98 95 97 93 93 104 104 113 94 97 78 101 108 99 74 88 81 73 93 78 111 102 100 82 87 83 89
74 94 110 111 111 116 118 115 115 114 115 112 110 107 106 109 119 109 106 99 116 95 116 111 108 104 120 118 112 96 108 87 120 114 111 104 91 90 79 92 101 100 86
80 82 80 111 116 118 89 121 118 119 118 104 103 98 99 115 115 117 118 121 124 98 117 118 119 114 115 107 127 131 94 105 83 94 92 112 115 110 111 106 99 98 99
79 80 82 83 84 97 118 120 123 124 121 119 122 114 110 120 80 83 103 99 80 133 108 117 129 106 102 126 127 112 101 124 111 106 104 82 116 98 96 96 99 97 93
73 76 79 82 85 88 89 100 113 122 119 123 127 109 95 104 118 132 112 118 110 115 119 118 117 119 134 128 136 132 128 104 117 112 115 115 113 117 82 102 104 106 101
81 82 80 80 82 83 84 86 89 94 98 92 94 104 132 75 125 78 92 129 126 127 113 125 133 107 115 120 116 110 138 136 132 106 136 122 109 118 118 113 106 103 105
78 78 80 81 80 81 83 86 89 91 88 92 87 94 101 106 106 85 82 129 83 89 130 134 135 136 129 117 128 134 112 122 133 131 128 113 75 113 110 110 110 109 105
88 90 92 89 88 91 100 92 95 91 91 90 89 89 87 91 83 84 91 95 86 72 85 104 106 111 131 130 120 127 127 123 122 124 120 118 115 114 112 111 109 107 105
75 83 87 89 91 92 93 92 90 89 89 91 90 88 83 84 79 77 74 79 76 89 79 75 88 86 95 96 102 106 110 117 117 121 118 117 116 114 109 108 105 102 81
70 73 75 75 76 78 85 96 93 90 88 89 87 87 84 81 81 80 81 83 83 73 90 97 98 89 68 71 76 84 97 105 106 109 108 107 104 102 89 87 69 91 78
75 77 81 81 82 83 82 81 80 79 79 83 85 83 81 76 77 74 79 77 76 75 92 95 66 99 100 72 70 66 68 61 70 68 75 75 76 72 65 92 83 85 77
44 64 83 84 87 86 84 84 85 84 85 83 81 79 77 77 75 74 66 73 66 65 63 60 58 77 73 63 63 79 82 82 80 94 92 82 82 60 81 78 79 39 46
49 53 61 80 90 92 91 88 86 88 85 82 80 76 78 75 70 68 66 64 65 63 62 63 63 59 79 61 65 66 64 59 45 76 76 54 51 52 70 52 46 47 41
57 55 57 62 82 89 93 93 96 92 90 87 85 78 73 70 65 64 63 62 63 65 66 64 62 62 63 63 61 67 70 63 60 55 54 48 51 48 46 49 45 41 45
57 64 62 60 64 81 88 90 90 90 88 85 81 76 77 73 70 68 70 69 68 68 68 57 56 55 59 63 59 55 51 49 46 47 58 44 45 47 47 48 46 45 44
37 56 66 64 64 62 76 82 81 80 80 80 79 77 75 75 75 67 56 53 53 50 44 41 43 46 46 41 39 44 49 42 46 44 42 43 45 45 47 47 46 46 45
39 36 43 61 58 61 55 71 76 76 73 71 63 56 56 57 56 53 52 51 48 44 46 44 45 41 37 35 33 34 37 41 44 46 47 47 48 48 48 48 46 46 47
Wind_Direction
224 230 233 221 223 232 232 250 240 242 246 260 254 254 256 263 264 267 257 265 267 271 277 274 279 280 270 274 280 284 279 284 293 297 297 291 290 303 303 303 295 297 305
222 228 230 231 222 236 237 245 232 243 256 261 254 259 256 263 268 266 266 270 270 269 273 274 281 274 283 271 283 285 284 279 290 286 288 297 297 294 301 304 294 298 308
227 226 227 234 232 225 235 234 234 239 240 246 251 254 265 261 265 262 266 268 271 273 273 274 276 270 272 281 279 283 281 288 287 291 291 296 298 295 295 291 300 298 297
218 221 222 235 228 234 236 236 241 237 240 255 246 260 260 272 269 262 270 270 271 271 267 270 266 277 281 281 279 281 281 286 291 293 295 288 288 289 300 299 298 302 302
221 225 232 223 235 236 239 236 243 236 230 259 253 250 255 258 272 264 271 274 267 273 270 275 262 270 278 275 281 275 287 276 285 283 287 295 298 299 299 296 299 301 294
222 228 226 232 234 231 238 236 241 243 255 257 261 259 252 255 267 256 263 270 269 270 274 275 275 274 268 280 282 284 277 283 281 285 292 294 294 296 294 297 298 299 300
218 228 225 227 229 237 237 237 243 247 250 250 250 248 255 249 254 262 269 270 269 264 268 274 277 277 278 279 276 280 284 283 286 287 290 291 293 291 294 296 296 297 298
220 228 225 235 231 234 238 250 249 251 251 247 255 252 252 258 254 262 265 262 266 259 269 272 278 275 274 278 279 284 281 282 291 290 289 291 294 294 296 295 295 294 298
226 226 224 231 237 237 244 249 247 249 246 255 251 251 257 252 262 263 264 266 257 267 269 271 275 277 279 277 277 280 282 283 284 286 289 288 291 292 294 295 296 298 298
220 227 232 235 234 239 241 243 242 242 246 247 247 256 257 255 260 264 265 268 269 268 271 267 269 275 284 281 280 280 281 285 289 285 288 287 292 292 293 293 295 296 296
229 226 230 234 237 234 235 240 244 246 246 247 249 252 255 256 255 256 259 262 260 269 263 270 275 278 276 276 281 283 280 285 283 285 286 289 291 290 290 293 289 290 294
234 232 237 232 235 236 243 239 242 242 245 251 252 255 258 255 257 257 258 260 262 270 265 266 268 272 278 281 278 278 285 285 287 287 289 288 290 290 291 291 291 293 294
241 242 240 240 242 240 235 240 238 244 248 250 250 254 255 251 268 269 259 263 276 260 270 268 263 274 278 270 273 276 283 280 283 285 287 284 288 287 289 290 290 292 293
245 244 245 246 246 246 247 243 242 243 248 249 250 253 256 259 256 256 259 261 263 264 266 266 269 268 271 271 273 275 277 279 281 283 285 284 285 286 285 288 289 288 292
248 248 249 248 247 246 246 248 247 246 246 251 252 251 251 261 258 266 267 261 261 263 267 266 265 270 270 271 273 275 273 276 279 282 279 282 285 284 284 286 288 289 289
246 248 250 251 250 247 249 247 246 247 253 249 256 251 249 250 253 267 267 255 267 270 259 264 264 265 268 272 269 269 276 276 275 276 278 281 287 284 285 286 286 285 288
242 245 247 249 249 251 253 251 256 257 258 262 258 256 264 256 262 261 258 258 261 267 261 260 264 261 265 268 265 271 272 273 274 274 278 278 280 283 283 284 286 286 287
250 247 247 248 249 250 250 251 252 252 253 253 256 262 262 260 263 264 265 263 263 263 263 264 262 265 262 262 264 265 267 268 270 275 275 276 278 280 282 283 284 285 284
255 255 254 254 253 254 254 253 254 254 255 257 257 257 259 262 261 262 260 259 259 265 258 259 260 261 268 268 268 267 267 267 269 271 273 276 279 279 282 284 284 285 284
250 248 252 252 252 253 253 253 253 252 253 253 256 259 260 263 264 266 261 262 263 263 259 260 267 261 262 266 269 271 270 274 273 274 274 275 278 282 282 284 284 285 286
277 258 246 245 249 249 251 252 254 255 255 256 257 259 261 262 264 263 266 263 267 268 269 272 271 263 266 269 269 267 270 272 274 274 275 277 278 282 281 283 284 283 282
289 262 254 244 243 245 247 248 249 252 255 256 256 257 264 266 264 263 264 267 269 269 271 268 266 268 267 268 267 268 270 273 280 271 273 275 278 279 280 281 280 281 283
264 258 250 247 239 242 243 245 246 250 253 254 259 260 261 262 264 264 263 263 265 266 266 269 269 268 265 268 268 266 267 272 270 271 272 272 274 276 276 277 279 283 280
273 249 244 239 243 237 240 241 245 247 248 251 254 254 256 259 260 261 261 269 268 268 269 269 268 269 270 270 269 268 266 267 268 269 270 269 267 271 271 274 276 277 279
283 255 238 234 236 241 235 238 241 244 246 249 252 255 257 260 262 261 261 261 262 262 261 260 262 265 267 269 264 262 261 264 263 266 266 266 267 269 272 274 275 276 278
300 284 252 227 232 237 240 233 236 241 244 247 247 246 247 250 252 254 256 257 259 257 257 260 262 265 262 261 263 258 254 257 260 263 266 267 267 268 271 274 274 277 276